| time (UTC) | temp C | wind direction | speed KPH | gust KPH | rain 1hr cm | rain 24hr cm | rain mn cm | humidity % | barometer mb |
| 20260507160019 | 10 | 331 | 6.4 | 12.9 | 0.00 | 0.03 | 0.03 | 60 | 1011.6 |
| 20260507155019 | 10 | 316 | 6.4 | 14.5 | 0.00 | 0.03 | 0.03 | 61 | 1011.6 |
| 20260507154020 | 11 | 331 | 9.7 | 14.5 | 0.00 | 0.03 | 0.03 | 61 | 1011.7 |
| 20260507153016 | 11 | 290 | 6.4 | 14.5 | 0.00 | 0.03 | 0.03 | 60 | 1011.8 |
| 20260507152017 | 10 | 211 | 6.4 | 16.1 | 0.00 | 0.03 | 0.03 | 60 | 1011.9 |
| 20260507151017 | 10 | 192 | 6.4 | 12.9 | 0.00 | 0.03 | 0.03 | 64 | 1011.9 |
| 20260507150017 | 10 | 339 | 4.8 | 8.0 | 0.00 | 0.03 | 0.03 | 64 | 1011.9 |
| 20260507145017 | 10 | 264 | 4.8 | 11.3 | 0.00 | 0.03 | 0.03 | 63 | 1012.0 |
| 20260507144017 | 10 | 324 | 4.8 | 9.7 | 0.00 | 0.03 | 0.03 | 65 | 1012.1 |
| 20260507143018 | 9 | 330 | 6.4 | 11.3 | 0.00 | 0.03 | 0.03 | 66 | 1012.1 |
| 20260507142018 | 9 | 181 | 6.4 | 14.5 | 0.00 | 0.03 | 0.03 | 66 | 1012.1 |
| 20260507141018 | 8 | 156 | 3.2 | 9.7 | 0.00 | 0.03 | 0.03 | 65 | 1012.1 |
| 20260507140018 | 8 | 148 | 3.2 | 8.0 | 0.00 | 0.05 | 0.03 | 67 | 1012.2 |
| 20260507135018 | 8 | 163 | 3.2 | 11.3 | 0.00 | 0.08 | 0.03 | 68 | 1012.3 |
| 20260507134018 | 8 | 44 | 3.2 | 6.4 | 0.00 | 0.10 | 0.03 | 68 | 1012.3 |
| 20260507133118 | 8 | 173 | 4.8 | 9.7 | 0.00 | 0.18 | 0.03 | 70 | 1012.2 |
| 20260507132018 | 7 | 165 | 4.8 | 8.0 | 0.00 | 0.18 | 0.03 | 74 | 1012.2 |
| 20260507131019 | 7 | 229 | 3.2 | 6.4 | 0.00 | 0.18 | 0.03 | 75 | 1012.2 |
| 20260507130018 | 6 | 163 | 3.2 | 8.0 | 0.00 | 0.18 | 0.03 | 75 | 1012.3 |
| 20260507125019 | 6 | 134 | 3.2 | 8.0 | 0.00 | 0.18 | 0.03 | 77 | 1012.3 |
| 20260507124016 | 6 | 82 | 1.6 | 4.8 | 0.00 | 0.18 | 0.03 | 80 | 1012.3 |
| 20260507123017 | 5 | 16 | 1.6 | 4.8 | 0.00 | 0.18 | 0.03 | 83 | 1012.4 |
| 20260507122017 | 5 | 2 | 3.2 | 4.8 | 0.00 | 0.18 | 0.03 | 85 | 1012.4 |
| 20260507121017 | 5 | 351 | 3.2 | 6.4 | 0.03 | 0.20 | 0.03 | 88 | 1012.4 |
| 20260507120017 | 5 | 351 | 3.2 | 6.4 | 0.03 | 0.23 | 0.03 | 89 | 1012.4 |
| 20260507115017 | 4 | 1 | 1.6 | 4.8 | 0.03 | 0.23 | 0.03 | 94 | 1012.5 |
| 20260507114017 | 4 | 13 | 3.2 | 6.4 | 0.03 | 0.23 | 0.03 | 99 | 1012.6 |
| 20260507113018 | 4 | 344 | 4.8 | 8.0 | 0.03 | 0.25 | 0.03 | 99 | 1012.8 |
| 20260507112038 | 4 | 334 | 4.8 | 9.7 | 0.03 | 0.25 | 0.03 | 99 | 1012.8 |
| 20260507111018 | 4 | 335 | 3.2 | 8.0 | 0.00 | 0.30 | 0.00 | 99 | 1012.8 |
| 20260507110018 | 4 | 331 | 4.8 | 8.0 | 0.00 | 0.33 | 0.00 | 99 | 1012.4 |
| 20260507105018 | 4 | 334 | 4.8 | 6.4 | 0.00 | 0.36 | 0.00 | 99 | 1012.2 |
| 20260507104019 | 4 | 353 | 3.2 | 4.8 | 0.00 | 0.38 | 0.00 | 99 | 1012.0 |
| 20260507103018 | 3 | 337 | 3.2 | 4.8 | 0.00 | 0.38 | 0.00 | 99 | 1011.9 |
| 20260507102018 | 3 | 343 | 4.8 | 6.4 | 0.00 | 0.41 | 0.00 | 99 | 1011.7 |
| 20260507101039 | 3 | 357 | 1.6 | 4.8 | 0.00 | 0.43 | 0.00 | 99 | 1011.7 |
| 20260507100019 | 3 | 357 | 1.6 | 4.8 | 0.00 | 0.48 | 0.00 | 99 | 1011.7 |
| 20260507095019 | 3 | 357 | 3.2 | 4.8 | 0.00 | 0.51 | 0.00 | 99 | 1011.8 |
| 20260507094016 | 3 | 360 | 3.2 | 3.2 | 0.00 | 0.53 | 0.00 | 99 | 1011.8 |
| 20260507093017 | 2 | 348 | 1.6 | 3.2 | 0.00 | 0.64 | 0.00 | 99 | 1011.8 |
| 20260507092017 | 2 | 7 | 1.6 | 3.2 | 0.00 | 0.66 | 0.00 | 99 | 1011.8 |
| 20260507091017 | 2 | 358 | 3.2 | 4.8 | 0.00 | 0.69 | 0.00 | 99 | 1011.8 |
| 20260507090017 | 2 | 349 | 1.6 | 4.8 | 0.00 | 0.74 | 0.00 | 99 | 1011.8 |
| 20260507085017 | 2 | 7 | 0.0 | 1.6 | 0.00 | 0.76 | 0.00 | 99 | 1011.8 |
| 20260507084038 | 3 | 22 | 1.6 | 3.2 | 0.00 | 0.81 | 0.00 | 99 | 1011.8 |
| 20260507083018 | 3 | 3 | 3.2 | 6.4 | 0.00 | 0.84 | 0.00 | 99 | 1011.9 |
| 20260507082018 | 2 | 355 | 1.6 | 3.2 | 0.00 | 0.89 | 0.00 | 99 | 1012.0 |
| 20260507081018 | 3 | 360 | 1.6 | 3.2 | 0.00 | 0.94 | 0.00 | 99 | 1012.0 |
| 20260507080038 | 3 | 10 | 1.6 | 3.2 | 0.00 | 0.99 | 0.00 | 99 | 1012.0 |
| 20260507075018 | 3 | 64 | 0.0 | 1.6 | 0.00 | 1.02 | 0.00 | 99 | 1011.8 |
| 20260507074018 | 3 | 28 | 0.0 | 3.2 | 0.00 | 1.09 | 0.00 | 99 | 1011.8 |
| 20260507073038 | 3 | 54 | 0.0 | 1.6 | 0.00 | 1.17 | 0.00 | 99 | 1011.8 |
| 20260507072059 | 4 | 147 | 0.0 | 1.6 | 0.00 | 1.22 | 0.00 | 99 | 1011.8 |
| 20260507071039 | 3 | 116 | 0.0 | 1.6 | 0.00 | 1.22 | 0.00 | 99 | 1011.8 |
| 20260507070019 | 4 | 2 | 1.6 | 3.2 | 0.00 | 1.24 | 0.00 | 99 | 1011.8 |
| 20260507065019 | 4 | 1 | 0.0 | 1.6 | 0.00 | 1.30 | 0.00 | 99 | 1011.9 |
| 20260507064019 | 5 | 13 | 0.0 | 3.2 | 0.00 | 1.35 | 0.00 | 99 | 1011.9 |
| 20260507063019 | 5 | 21 | 1.6 | 3.2 | 0.00 | 1.40 | 0.00 | 99 | 1012.1 |
| 20260507062017 | 5 | 7 | 0.0 | 3.2 | 0.00 | 1.42 | 0.00 | 99 | 1012.2 |
| 20260507061016 | 5 | 7 | 1.6 | 3.2 | 0.00 | 1.45 | 0.00 | 99 | 1012.3 |
| 20260507060017 | 5 | 347 | 0.0 | 1.6 | 0.00 | 1.47 | 0.00 | 99 | 1012.4 |
| 20260507055017 | 5 | 353 | 1.6 | 3.2 | 0.00 | 1.47 | 0.00 | 100 | 1012.3 |
| 20260507054018 | 5 | 4 | 0.0 | 3.2 | 0.00 | 1.50 | 0.00 | 100 | 1012.5 |
| 20260507053017 | 5 | 12 | 1.6 | 3.2 | 0.00 | 1.52 | 0.00 | 100 | 1012.5 |
| 20260507052018 | 6 | 49 | 1.6 | 1.6 | 0.00 | 1.55 | 0.00 | 99 | 1012.4 |
| 20260507051018 | 6 | 30 | 1.6 | 3.2 | 0.00 | 1.57 | 0.00 | 99 | 1012.6 |
| 20260507050018 | 6 | 190 | 1.6 | 3.2 | 0.00 | 1.63 | 0.00 | 99 | 1012.7 |
| 20260507045038 | 6 | 81 | 1.6 | 3.2 | 0.00 | 1.70 | 0.00 | 99 | 1012.7 |
| 20260507044018 | 6 | 69 | 1.6 | 3.2 | 0.00 | 1.75 | 0.00 | 99 | 1012.7 |
| 20260507043018 | 6 | 174 | 1.6 | 4.8 | 0.00 | 1.78 | 0.00 | 99 | 1012.8 |
| 20260507042018 | 6 | 16 | 1.6 | 3.2 | 0.00 | 1.80 | 0.00 | 98 | 1012.7 |
| 20260507041018 | 6 | 27 | 1.6 | 3.2 | 0.00 | 1.80 | 0.00 | 98 | 1012.7 |
| 20260507040019 | 6 | 3 | 1.6 | 1.6 | 0.00 | 1.80 | 0.00 | 98 | 1012.6 |
| 20260507035040 | 6 | 176 | 3.2 | 6.4 | 0.00 | 1.80 | 1.80 | 98 | 1012.6 |
| 20260507034016 | 6 | 175 | 1.6 | 3.2 | 0.00 | 1.83 | 1.80 | 98 | 1012.6 |
| 20260507033037 | 6 | 71 | 1.6 | 3.2 | 0.00 | 1.83 | 1.80 | 98 | 1012.6 |
| 20260507032017 | 6 | 183 | 1.6 | 4.8 | 0.00 | 1.85 | 1.80 | 98 | 1012.7 |
| 20260507031017 | 6 | 12 | 0.0 | 1.6 | 0.00 | 1.85 | 1.80 | 97 | 1012.7 |
| 20260507030017 | 6 | 100 | 1.6 | 3.2 | 0.00 | 1.88 | 1.80 | 97 | 1012.7 |
| 20260507025017 | 6 | 178 | 1.6 | 4.8 | 0.00 | 1.93 | 1.80 | 97 | 1012.6 |
| 20260507024017 | 6 | 352 | 1.6 | 3.2 | 0.00 | 1.98 | 1.80 | 97 | 1012.5 |
| 20260507023018 | 6 | 149 | 1.6 | 4.8 | 0.00 | 2.01 | 1.80 | 97 | 1012.4 |
| 20260507022018 | 6 | 127 | 1.6 | 3.2 | 0.00 | 2.08 | 1.80 | 96 | 1012.5 |
| 20260507021017 | 6 | 41 | 0.0 | 3.2 | 0.00 | 2.11 | 1.80 | 96 | 1012.6 |
| 20260507020038 | 6 | 64 | 0.0 | 3.2 | 0.00 | 2.16 | 1.80 | 95 | 1012.9 |
| 20260507015018 | 6 | 188 | 1.6 | 4.8 | 0.00 | 2.18 | 1.80 | 95 | 1013.1 |
| 20260507014019 | 6 | 193 | 1.6 | 3.2 | 0.00 | 2.21 | 1.80 | 96 | 1013.0 |
| 20260507013018 | 6 | 206 | 1.6 | 4.8 | 0.00 | 2.21 | 1.80 | 96 | 1013.0 |
| 20260507012019 | 6 | 187 | 1.6 | 4.8 | 0.00 | 2.24 | 1.80 | 96 | 1012.8 |
| 20260507011019 | 6 | 196 | 1.6 | 3.2 | 0.00 | 2.24 | 1.80 | 96 | 1012.7 |
| 20260507010019 | 6 | 104 | 1.6 | 3.2 | 0.00 | 2.26 | 1.80 | 96 | 1012.6 |
| 20260507005019 | 6 | 104 | 1.6 | 3.2 | 0.00 | 2.29 | 1.80 | 95 | 1012.5 |
| 20260507004036 | 6 | 110 | 1.6 | 3.2 | 0.00 | 2.31 | 1.80 | 95 | 1012.4 |
| 20260507003017 | 6 | 141 | 1.6 | 4.8 | 0.00 | 2.39 | 1.80 | 94 | 1012.2 |
| 20260507002017 | 6 | 13 | 1.6 | 3.2 | 0.00 | 2.46 | 1.80 | 93 | 1012.1 |
| 20260507001017 | 6 | 13 | 1.6 | 3.2 | 0.00 | 2.57 | 1.80 | 92 | 1012.0 |
| 20260507000037 | 6 | 3 | 1.6 | 3.2 | 0.00 | 2.74 | 1.80 | 92 | 1012.0 |
| 20260506235017 | 6 | 353 | 3.2 | 4.8 | 0.00 | 2.92 | 1.80 | 92 | 1011.9 |
| 20260506234017 | 6 | 354 | 3.2 | 4.8 | 0.00 | 3.07 | 1.80 | 91 | 1011.9 |
| 20260506233037 | 6 | 1 | 4.8 | 6.4 | 0.00 | 3.23 | 1.80 | 90 | 1011.9 |
| 20260506232018 | 6 | 2 | 4.8 | 6.4 | 0.00 | 3.33 | 1.80 | 90 | 1011.9 |
| 20260506231018 | 7 | 333 | 6.4 | 8.0 | 0.00 | 3.40 | 1.80 | 90 | 1011.8 |
| 20260506230018 | 6 | 334 | 6.4 | 8.0 | 0.00 | 3.56 | 1.80 | 91 | 1011.7 |
| 20260506225018 | 7 | 340 | 4.8 | 9.7 | 0.00 | 3.63 | 1.80 | 92 | 1011.6 |
| 20260506224019 | 6 | 350 | 4.8 | 9.7 | 0.00 | 3.73 | 1.80 | 94 | 1011.4 |
| 20260506223019 | 6 | 337 | 4.8 | 8.0 | 0.00 | 3.81 | 1.80 | 97 | 1011.2 |
| 20260506222019 | 6 | 334 | 6.4 | 11.3 | 0.00 | 3.94 | 1.80 | 97 | 1011.1 |
| 20260506221019 | 5 | 343 | 6.4 | 9.7 | 0.00 | 4.06 | 1.80 | 98 | 1011.0 |
| 20260506220019 | 5 | 341 | 8.0 | 14.5 | 0.00 | 4.29 | 1.80 | 98 | 1010.9 |
| 20260506215040 | 5 | 341 | 9.7 | 14.5 | 0.00 | 4.42 | 1.80 | 99 | 1010.9 |
| 20260506214016 | 5 | 331 | 9.7 | 14.5 | 0.00 | 4.57 | 1.80 | 99 | 1011.0 |
| 20260506213017 | 5 | 328 | 8.0 | 14.5 | 0.00 | 4.67 | 1.80 | 99 | 1011.0 |
| 20260506212017 | 5 | 326 | 8.0 | 12.9 | 0.00 | 4.78 | 1.80 | 99 | 1010.9 |
| 20260506211017 | 5 | 330 | 9.7 | 14.5 | 0.00 | 4.93 | 1.80 | 99 | 1010.7 |
| 20260506210017 | 5 | 329 | 9.7 | 16.1 | 0.00 | 5.18 | 1.80 | 99 | 1010.6 |
| 20260506205018 | 5 | 320 | 9.7 | 16.1 | 0.00 | 5.36 | 1.80 | 98 | 1010.6 |
| 20260506204018 | 6 | 326 | 9.7 | 16.1 | 0.00 | 5.56 | 1.80 | 98 | 1010.5 |
| 20260506203018 | 6 | 323 | 8.0 | 16.1 | 0.00 | 5.66 | 1.80 | 96 | 1010.5 |
| 20260506202018 | 7 | 315 | 9.7 | 17.7 | 0.00 | 5.69 | 1.78 | 94 | 1010.2 |
| 20260506201018 | 8 | 315 | 11.3 | 16.1 | 0.00 | 5.69 | 1.78 | 92 | 1010.0 |
| 20260506200018 | 10 | 302 | 8.0 | 19.3 | 0.00 | 5.69 | 1.78 | 87 | 1009.8 |
| 20260506195018 | 10 | 184 | 9.7 | 16.1 | 0.00 | 5.71 | 1.78 | 84 | 1009.4 |
| 20260506194018 | 10 | 175 | 8.0 | 14.5 | 0.00 | 5.71 | 1.78 | 87 | 1009.3 |
| 20260506193019 | 10 | 180 | 6.4 | 11.3 | 0.00 | 5.71 | 1.78 | 89 | 1009.4 |
| 20260506192019 | 10 | 171 | 6.4 | 11.3 | 0.00 | 5.71 | 1.78 | 90 | 1009.4 |
| 20260506191019 | 10 | 168 | 4.8 | 9.7 | 0.00 | 5.71 | 1.78 | 89 | 1009.5 |
| 20260506190019 | 10 | 162 | 1.6 | 4.8 | 0.00 | 5.71 | 1.78 | 88 | 1009.5 |
| 20260506185016 | 10 | 24 | 1.6 | 4.8 | 0.00 | 5.71 | 1.78 | 88 | 1009.3 |
| 20260506184016 | 10 | 348 | 4.8 | 6.4 | 0.00 | 5.71 | 1.78 | 86 | 1009.4 |
| 20260506183017 | 10 | 341 | 4.8 | 6.4 | 0.00 | 5.71 | 1.78 | 86 | 1009.4 |
| 20260506182017 | 10 | 355 | 3.2 | 4.8 | 0.00 | 5.71 | 1.78 | 85 | 1009.3 |
| 20260506181017 | 10 | 11 | 1.6 | 3.2 | 0.00 | 5.71 | 1.78 | 86 | 1009.4 |
| 20260506180018 | 10 | 347 | 4.8 | 8.0 | 0.00 | 5.74 | 1.78 | 86 | 1009.4 |
| 20260506175057 | 10 | 354 | 1.6 | 4.8 | 0.00 | 5.74 | 1.78 | 87 | 1009.4 |
| 20260506174017 | 10 | 16 | 1.6 | 4.8 | 0.00 | 5.74 | 1.78 | 88 | 1009.3 |
| 20260506173018 | 10 | 178 | 3.2 | 6.4 | 0.00 | 5.74 | 1.78 | 87 | 1009.5 |
| 20260506172018 | 9 | 352 | 3.2 | 4.8 | 0.00 | 5.77 | 1.78 | 90 | 1009.6 |
| 20260506171018 | 9 | 40 | 1.6 | 3.2 | 0.00 | 5.77 | 1.78 | 91 | 1009.7 |
| 20260506170018 | 9 | 346 | 1.6 | 3.2 | 0.00 | 5.77 | 1.78 | 91 | 1009.7 |
| 20260506165018 | 9 | 269 | 1.6 | 3.2 | 0.00 | 5.77 | 1.78 | 91 | 1009.6 |
| 20260506164018 | 9 | 345 | 3.2 | 6.4 | 0.00 | 5.77 | 1.78 | 91 | 1009.5 |
| 20260506163019 | 9 | 150 | 3.2 | 6.4 | 0.00 | 5.77 | 1.78 | 93 | 1009.3 |
| 20260506162019 | 9 | 13 | 1.6 | 4.8 | 0.00 | 5.79 | 1.78 | 95 | 1009.3 |
| 20260506161019 | 8 | 29 | 1.6 | 4.8 | 0.00 | 5.82 | 1.78 | 96 | 1009.5 |